Location: Krakow
(50.0830°N, 19.9170°E)
Time: 05:47:49
(UTC+02:00)

Tiros 1 - Pass Details

Date: 09 February 2023
Orbit: 627 x 662 km, 48.4° (Epoch: 25 March)

Event Time Altitude Azimuth Distance (km) Brightness Sun altitude
Rises 04:07:23 0° 279° (W) 2,926 - -28.4°
Reaches altitude 10° 04:10:18 10° 261° (W) 2,021 - -27.9°
Maximum altitude 04:13:26 18° 219° (SW) 1,558 - -27.4°
Drops below altitude 10° 04:16:36 10° 176° (S) 2,028 - -26.9°
Exits shadow 04:17:26 - 169° (S) 2,264 10.0 -26.8°
Sets 04:19:32 0° 157° (SSE) 2,942 10.7 -26.5°
